GFSNGP_250_rhum_351.txt.gz
RH
7 8 10 12 13 15 18 18 14 19 26 23 19 22 28 31 41 64 96 85 89 82 63 54 56 64 73 75 76 79 89 100 99 100 100 100 100 100 100 100 100 100 100 100
10 9 10 12 14 15 18 18 14 16 21 32 32 26 24 25 26 45 64 79 80 85 100 85 60 60 59 70 76 74 76 80 98 100 100 100 100 100 100 100 100 100 100 100
8 10 10 11 14 15 17 18 17 15 16 24 32 29 24 25 28 27 38 66 88 75 70 98 82 73 70 68 79 78 77 78 80 97 100 100 100 100 100 100 100 100 100 100
9 8 11 13 13 15 14 17 19 19 17 16 22 32 34 27 24 28 34 43 86 90 72 64 93 100 93 81 81 89 83 79 83 79 84 92 94 98 100 100 100 100 100 100
11 11 10 11 15 14 15 16 16 19 23 23 23 28 29 31 31 27 26 28 41 65 88 91 72 87 99 98 94 88 86 84 83 86 89 87 79 79 88 100 100 100 100 100
13 11 13 13 11 15 18 15 16 18 22 26 24 24 27 32 32 30 28 28 29 31 38 64 94 90 92 99 100 100 100 95 90 88 90 96 96 89 90 90 95 100 100 100
13 13 11 13 14 14 13 16 18 17 20 22 25 25 25 25 26 28 31 34 35 34 36 41 53 79 93 93 98 100 97 90 87 88 94 95 100 100 100 100 100 100 100 100
16 15 14 11 13 13 15 13 14 18 21 20 21 22 24 26 28 29 28 29 32 37 39 38 44 53 68 90 92 86 87 94 89 92 98 100 100 100 100 100 100 100 100 100
16 16 16 14 12 12 14 15 16 13 15 23 24 25 24 24 26 29 32 33 33 37 39 41 41 41 39 49 64 80 85 88 90 97 100 99 100 100 100 100 100 100 100 100
16 16 16 17 16 14 11 14 13 16 17 14 18 21 26 29 28 28 29 30 33 31 34 38 43 42 40 40 39 41 43 53 64 81 93 99 98 95 93 92 94 98 100 100
15 16 16 16 17 16 16 11 13 13 14 18 17 17 17 22 29 30 29 28 28 28 31 31 33 34 42 44 41 40 44 42 40 42 44 47 52 58 72 87 98 100 100 100
16 15 15 16 17 18 17 17 13 13 15 13 15 18 19 18 18 24 32 32 28 24 25 27 29 32 34 35 40 42 43 44 47 47 46 47 50 56 62 67 74 80 88 95
16 15 14 15 15 17 19 19 17 16 13 15 15 14 15 17 19 19 18 22 32 36 34 27 22 25 30 33 33 34 37 40 39 40 41 43 44 42 40 40 41 43 44 44
16 15 14 14 15 15 16 18 20 20 17 14 15 16 15 14 14 14 18 20 20 21 25 32 34 29 26 26 27 29 31 34 36 38 37 37 36 36 38 39 39 39 39 39
17 16 15 14 14 15 15 16 18 19 21 21 17 14 17 18 15 14 13 14 15 19 22 25 25 27 32 33 35 38 39 38 36 36 37 38 37 35 34 34 34 36 40 42
17 16 15 14 14 14 15 15 16 18 19 19 22 20 17 14 17 19 17 16 14 14 15 18 22 25 29 30 31 34 38 39 38 36 37 37 36 37 40 40 40 39 38 38
17 15 14 14 14 14 14 15 15 17 18 20 19 22 22 23 19 16 17 18 16 15 15 16 15 16 21 23 26 28 29 30 32 32 33 33 35 40 42 43 43 43 43 40
17 15 14 13 14 13 13 14 14 16 16 17 20 21 22 21 23 22 19 18 19 18 17 16 16 18 22 25 27 28 29 30 33 35 35 37 37 37 39 42 44 45 44 44
17 15 14 13 13 13 13 13 14 14 15 16 18 20 21 22 22 22 24 23 20 20 23 22 20 19 18 17 19 22 28 33 37 37 34 37 40 42 41 42 44 46 47 48
17 15 13 12 12 12 13 13 13 13 14 15 16 18 20 21 24 24 26 27 27 27 30 28 28 25 24 23 24 23 24 26 28 32 32 39 39 36 37 39 41 43 44 44
17 15 14 12 12 12 12 12 13 13 13 14 15 17 18 21 21 22 25 25 32 35 32 28 25 26 30 33 33 31 30 29 30 30 31 34 34 34 34 36 38 41 42 44
16 14 13 12 12 12 12 11 11 13 13 13 14 15 16 19 21 20 22 24 30 38 35 35 32 31 33 36 36 34 36 39 41 42 41 40 41 42 41 44 49 50 51 51
16 14 13 12 11 11 12 12 11 11 13 13 13 14 16 18 20 19 20 23 25 32 35 37 39 36 36 43 43 42 39 44 43 43 44 44 46 49 55 56 54 54 53 52
15 13 12 11 11 10 11 11 11 11 12 12 12 13 14 16 19 18 19 22 22 28 32 34 40 42 43 47 49 47 47 47 52 52 51 51 53 54 53 54 57 60 62 61
14 12 10 9 10 10 10 11 11 11 11 12 12 13 13 15 17 18 19 20 21 23 28 31 33 38 45 46 43 47 53 55 54 59 62 61 61 61 64 65 63 61 61 57
13 11 8 7 8 9 9 10 11 11 11 11 12 12 12 13 15 17 18 20 21 22 24 27 30 32 33 36 37 38 41 45 50 53 56 59 61 63 64 64 63 60 60 58
11 9 7 6 6 7 8 9 10 11 11 11 11 12 12 12 14 15 16 18 20 21 22 24 26 28 29 30 31 32 33 34 36 38 41 40 40 41 42 42 41 40 39 39

GFSNGP_250_rhum_354.txt.gz
RH
7 8 10 11 11 12 14 15 17 18 21 22 20 17 14 17 29 46 52 90 85 90 76 58 59 61 72 95 91 75 82 98 100 100 100 100 100 100 100 100 100 100 100 100
8 7 9 11 11 13 15 16 19 20 22 24 23 21 19 19 22 32 51 84 100 92 86 89 72 64 70 81 87 89 74 61 84 100 100 100 100 100 100 100 100 100 100 100
9 9 8 8 11 11 14 16 18 20 23 24 26 27 27 24 25 25 29 59 99 100 100 99 94 71 78 73 75 74 61 52 56 68 94 100 100 100 100 100 100 100 100 100
12 10 10 10 8 10 11 13 16 19 23 28 28 27 26 24 26 27 33 55 99 100 99 98 83 77 81 85 85 74 75 66 51 57 67 78 94 100 100 100 100 100 100 100
13 12 11 12 11 9 10 12 13 15 19 26 28 28 29 28 25 28 29 43 77 82 100 100 96 97 100 92 81 75 77 74 62 54 51 61 72 84 100 100 100 100 100 100
14 14 12 12 13 12 11 10 12 12 15 24 28 29 29 28 32 33 34 36 61 80 98 74 96 97 100 100 100 98 95 89 80 69 66 65 64 70 76 86 99 100 100 100
15 14 15 14 12 12 13 12 12 11 13 15 20 25 35 33 32 31 31 39 41 49 66 75 78 87 95 100 100 100 99 100 100 94 90 88 83 78 71 68 75 88 98 100
18 15 14 15 14 13 12 12 14 14 13 13 14 18 25 36 38 37 36 34 34 32 31 35 54 76 87 93 94 100 100 98 82 90 96 97 89 84 82 84 87 85 90 88
20 17 15 14 14 16 14 12 12 13 14 14 14 15 16 20 27 34 38 38 39 36 34 33 31 32 46 74 86 88 74 82 100 100 98 96 100 99 95 93 96 93 87 96
37 18 17 16 14 14 16 16 14 12 13 16 16 16 16 17 18 23 28 35 38 37 36 37 37 37 38 45 58 76 100 100 82 79 93 100 100 86 71 68 82 93 99 100
88 21 17 16 15 14 14 15 16 16 13 13 14 16 16 16 16 17 18 21 27 32 37 40 40 39 39 39 40 44 53 68 82 73 76 77 80 80 79 79 83 81 88 92
100 68 17 16 16 15 14 14 15 17 16 15 13 13 15 17 16 17 18 19 20 22 24 26 30 34 38 42 44 43 44 49 49 51 53 60 71 78 73 79 89 91 92 95
100 100 38 16 15 15 14 14 13 14 16 17 16 14 14 13 15 17 16 18 20 20 21 23 24 24 26 30 35 40 41 41 38 38 39 40 43 48 54 66 74 82 97 100
100 97 96 18 16 14 15 14 13 13 14 16 17 18 16 14 14 13 15 18 19 19 20 21 21 21 22 25 26 30 33 35 37 39 41 43 43 44 41 40 40 41 44 48
100 100 100 35 17 15 14 14 15 14 14 14 16 18 18 18 16 15 14 13 14 18 20 20 20 21 22 22 21 22 24 26 28 33 39 41 41 44 46 44 42 40 40 40
100 100 100 67 18 16 15 14 14 14 14 14 14 15 17 19 19 19 18 18 16 14 14 16 19 20 22 22 22 24 24 25 25 28 29 32 37 39 39 40 42 44 44 42
99 100 100 95 21 16 15 14 13 14 14 14 14 15 15 17 18 20 21 19 19 17 16 14 13 13 16 20 24 26 27 28 27 26 30 32 31 33 37 45 46 45 43 38
100 100 96 100 25 16 14 13 13 13 13 13 14 14 16 16 17 18 19 20 20 18 18 19 18 16 17 16 16 18 22 25 28 32 31 34 34 33 34 34 32 31 30 28
98 97 88 100 29 15 13 12 12 12 12 12 12 14 14 15 17 18 19 18 18 20 22 25 24 21 19 16 14 13 13 14 17 21 24 26 28 29 29 30 31 28 27 30
96 98 95 100 28 14 11 10 10 11 12 11 12 12 13 14 16 16 18 17 18 21 24 26 23 20 19 20 19 17 16 15 15 17 20 22 28 34 36 39 40 40 39 39
100 94 97 87 20 12 9 8 9 10 11 11 11 11 12 13 15 16 16 16 16 22 23 24 24 22 23 25 28 25 22 20 19 18 18 18 20 23 24 25 28 30 33 37
100 98 100 62 16 11 8 8 7 8 10 10 11 11 11 13 15 15 15 16 16 20 20 22 23 21 24 27 29 26 25 27 26 25 24 24 24 25 26 27 30 32 33 35
100 93 90 32 13 10 8 7 7 7 8 9 10 11 11 12 14 14 14 16 16 20 20 20 22 22 22 30 33 32 28 28 31 33 36 36 36 35 35 34 34 34 34 35
100 91 61 18 10 8 7 7 6 6 6 8 9 10 11 11 12 13 13 15 16 18 20 20 21 22 23 25 28 32 35 33 36 39 39 40 41 43 43 45 45 45 48 50
100 76 31 12 8 7 6 6 6 6 6 6 8 10 10 11 11 13 13 14 15 16 18 20 21 23 24 24 25 24 28 34 36 41 44 45 46 45 46 46 45 47 49 49
96 42 16 9 8 6 6 6 6 6 6 6 7 9 10 11 11 12 12 14 14 16 17 19 20 21 23 25 25 26 25 26 28 34 40 46 51 51 50 50 50 49 51 50
60 18 11 8 7 6 6 6 6 6 6 6 6 7 9 10 11 11 12 13 13 14 16 17 19 20 21 22 23 24 26 28 29 30 31 31 34 39 42 44 46 47 48 47

GFSNGP_250_rhum_357.txt.gz
RH
7 8 8 8 9 10 12 16 14 16 14 13 14 16 18 21 25 31 59 66 74 57 44 41 45 48 51 62 72 84 84 81 94 98 100 100 100 100 100 100 100 100 100 100
11 8 8 9 9 10 14 16 15 15 17 16 17 18 18 19 21 28 39 79 73 68 42 47 46 44 47 49 57 66 80 91 97 99 98 100 100 100 100 100 100 100 100 100
12 12 9 9 10 10 10 15 17 16 17 17 17 17 16 19 20 21 27 36 77 69 56 66 61 42 44 49 55 61 66 73 81 97 98 99 100 100 100 100 100 100 100 100
14 13 13 11 9 10 11 12 16 18 18 17 18 18 20 22 24 22 21 28 45 82 83 79 87 68 52 57 54 61 68 63 67 72 84 93 91 100 100 100 100 100 100 100
39 15 13 13 12 10 11 11 14 17 20 18 16 18 18 18 20 23 25 28 33 48 78 97 99 90 93 89 83 84 69 73 61 62 67 74 79 98 100 100 100 100 100 100
70 32 16 14 13 13 11 11 12 15 18 20 20 17 17 20 20 23 25 27 35 32 55 100 100 100 100 96 91 93 75 68 72 74 60 58 66 68 75 94 100 100 100 100
82 75 39 17 14 13 13 12 12 12 16 20 20 22 21 21 20 21 20 22 26 30 34 59 100 100 100 100 100 98 95 82 69 92 92 87 75 65 68 78 93 98 100 98
95 93 84 31 17 15 13 14 13 12 14 14 20 22 21 23 25 23 23 23 24 27 32 44 58 98 100 100 100 100 100 100 84 91 100 99 95 78 70 72 77 80 80 85
78 93 90 88 27 17 15 14 13 14 13 13 15 18 26 23 22 23 25 26 28 29 30 32 45 64 79 99 100 100 100 100 91 87 87 99 100 99 84 79 77 76 76 77
99 85 92 93 82 22 17 15 14 14 14 13 13 15 17 21 25 25 23 26 27 29 28 33 36 46 55 62 80 100 100 100 100 100 100 98 100 100 99 81 86 96 91 86
100 85 91 86 97 49 19 17 15 14 14 14 15 12 14 18 20 24 27 26 28 28 32 31 34 36 37 50 48 59 79 96 100 100 100 100 100 100 100 100 96 83 71 75
100 100 85 92 96 80 25 16 16 15 14 13 14 15 14 12 15 18 21 23 25 24 26 32 32 31 36 40 44 51 59 61 64 77 84 87 95 100 99 100 100 99 95 88
100 100 100 90 90 91 37 18 14 14 15 14 13 14 15 16 14 13 15 20 23 24 25 28 31 40 45 44 42 43 43 45 45 39 41 55 79 87 91 98 99 100 100 100
100 100 100 96 100 93 52 20 14 12 12 14 14 14 14 15 16 16 14 13 15 19 23 28 35 36 37 42 41 38 40 43 45 45 42 43 43 47 55 56 61 69 72 73
100 100 99 100 96 96 69 24 14 12 11 12 12 14 14 14 15 16 18 18 16 16 17 20 22 22 24 28 32 38 45 41 39 41 43 45 43 44 46 46 47 48 50 47
100 100 100 100 100 93 83 24 14 11 10 10 11 12 13 14 15 15 16 17 19 18 17 16 17 20 22 24 23 24 28 30 36 39 40 46 46 50 51 49 49 48 42 47
100 100 100 100 100 93 74 24 13 10 9 8 9 11 12 12 13 15 16 16 16 16 17 17 15 16 17 20 22 24 25 25 25 26 27 28 32 36 38 41 46 47 48 53
100 100 100 100 98 89 56 18 11 9 8 8 7 8 11 11 12 13 14 15 15 16 17 18 18 18 19 18 18 18 19 20 21 23 26 30 31 31 30 30 32 34 36 36
100 100 98 100 97 69 34 14 10 8 8 7 7 7 9 11 12 12 12 13 14 15 16 19 19 20 20 19 18 17 16 16 16 17 18 21 22 23 25 26 27 28 27 28
100 100 97 99 94 46 22 11 9 8 7 7 7 7 7 9 11 12 12 12 12 14 16 19 19 19 18 19 20 19 19 19 18 17 17 15 15 16 17 18 19 20 22 24
100 100 100 84 90 31 16 10 8 7 7 6 6 6 6 7 10 12 12 11 12 15 14 16 20 20 20 21 22 21 20 19 19 20 21 20 17 17 17 16 17 18 19 21
100 99 100 76 75 28 13 9 8 7 6 6 6 6 6 6 9 10 11 11 12 14 14 14 17 19 19 20 22 25 24 22 22 21 22 22 22 19 19 19 18 18 18 20
100 97 100 68 42 19 10 9 8 7 6 6 6 6 6 6 7 9 10 11 11 13 14 14 15 17 19 19 19 22 24 22 24 25 26 25 25 26 24 23 21 21 20 19
100 99 90 48 26 13 9 8 7 7 6 6 6 6 6 6 6 7 9 11 11 11 13 14 15 16 18 21 20 18 22 23 23 28 32 32 33 32 30 28 30 31 29 27
100 84 61 40 17 11 9 8 7 6 6 6 5 5 6 6 6 6 8 10 11 11 11 13 14 15 16 19 21 20 20 22 24 24 27 33 34 33 34 32 32 32 34 33
100 62 43 26 11 10 9 8 6 6 6 5 5 5 6 6 6 6 7 9 10 11 11 11 13 14 15 17 18 19 20 20 22 25 26 26 30 35 36 37 37 38 39 39
76 41 29 13 10 10 8 7 6 6 6 5 5 5 5 6 6 6 6 8 10 11 11 11 12 13 14 15 16 18 19 20 21 21 23 25 27 29 31 35 38 40 41 40

GFSNGP_250_rhum_360.txt.gz
RH
11 12 8 9 10 12 13 14 14 14 13 13 12 11 13 12 16 27 38 57 59 47 47 57 56 66 79 79 73 76 68 67 67 82 93 99 94 79 77 78 82 94 100 100
12 12 12 9 9 10 12 13 12 14 15 14 12 11 12 13 14 19 29 44 67 59 50 49 53 58 68 84 87 82 88 83 75 74 84 96 100 100 100 100 95 91 94 100
51 14 12 13 11 10 10 12 11 12 12 12 13 12 12 12 13 14 19 30 52 69 61 49 50 53 59 68 81 92 98 99 93 93 91 91 96 100 100 100 100 100 100 100
73 57 21 12 13 13 11 11 12 12 13 12 13 13 13 13 13 16 15 22 35 54 64 70 50 58 52 57 67 83 94 97 96 99 100 100 96 92 93 99 100 100 100 100
76 75 60 25 14 13 14 11 11 11 12 14 13 14 13 13 13 15 16 15 24 37 52 88 69 84 64 73 62 69 75 82 89 86 87 91 99 100 100 100 99 100 100 100
74 77 79 70 35 15 14 13 14 11 11 11 14 15 15 14 14 15 16 17 17 25 41 87 96 95 89 72 60 59 68 60 64 72 78 73 83 93 92 90 99 100 100 100
82 92 75 83 70 38 17 14 13 14 12 11 11 14 16 16 16 16 16 18 20 20 28 48 81 100 100 96 67 56 74 64 73 79 75 78 83 86 85 77 79 83 84 97
93 100 100 83 82 71 38 17 14 13 14 15 11 10 14 18 18 18 17 16 20 24 22 29 49 68 100 100 100 96 90 89 67 70 85 88 87 81 75 70 73 75 71 76
93 100 98 100 87 81 63 31 18 14 14 14 16 13 10 13 18 19 21 22 23 23 26 29 34 47 72 92 100 100 100 95 94 79 88 81 92 84 100 90 77 74 70 69
97 99 100 100 93 96 70 43 23 14 13 14 14 17 15 12 12 17 19 19 23 24 23 22 28 33 45 64 90 93 90 90 87 90 100 100 99 66 68 78 94 97 76 75
94 89 100 96 99 98 90 47 23 15 13 12 13 14 16 16 13 12 14 19 21 22 25 24 24 26 33 41 53 69 93 100 100 96 100 100 100 96 67 63 68 69 82 83
97 89 100 100 100 92 100 57 32 16 12 11 11 13 13 16 18 16 15 15 18 23 24 27 29 28 29 33 45 59 74 87 90 98 100 100 100 100 100 96 79 80 76 80
84 90 100 100 95 99 98 77 39 16 12 11 9 9 12 12 15 18 18 18 19 20 25 27 28 31 33 34 38 48 55 66 87 91 98 100 100 100 100 98 92 85 87 87
73 91 94 100 97 100 96 75 39 15 11 10 9 9 8 11 12 13 17 18 18 18 21 21 24 27 28 30 35 54 70 72 66 67 79 83 80 94 99 99 100 100 100 97
77 92 95 98 99 100 95 75 41 14 10 10 9 8 8 8 10 12 12 15 18 17 17 18 19 21 26 27 29 32 36 36 39 46 48 57 63 67 75 84 85 83 88 95
76 97 97 97 96 100 99 77 34 14 10 9 9 8 8 8 8 10 12 12 12 16 18 18 17 20 22 24 30 34 35 35 38 40 40 42 45 46 52 63 70 78 90 86
72 84 94 90 86 98 100 74 30 13 10 9 9 8 8 7 7 8 10 12 12 12 14 17 19 19 20 24 26 26 28 32 35 40 48 48 50 58 62 57 62 68 64 59
76 78 86 81 87 100 92 64 27 13 10 9 9 8 7 7 7 7 8 9 11 12 12 13 16 21 22 20 20 21 24 27 28 32 35 37 40 40 42 44 42 46 47 50
62 69 79 73 95 96 82 54 22 13 11 10 9 8 7 7 7 7 7 7 9 11 12 13 14 15 17 19 21 22 21 22 24 27 33 36 33 36 36 39 40 40 41 42
59 63 68 66 93 77 70 38 17 12 11 9 8 8 7 6 6 6 7 6 7 10 12 13 12 13 14 17 18 19 21 23 23 22 20 20 22 27 30 31 33 33 34 34
79 63 68 69 77 61 52 24 13 11 10 9 8 8 6 6 6 6 6 6 6 8 10 12 13 13 14 16 19 20 21 23 25 26 26 24 22 20 20 19 19 20 22 24
80 78 86 66 67 50 36 18 11 11 10 8 7 7 6 6 6 6 6 6 7 7 8 10 12 13 13 14 15 17 17 18 19 20 23 25 25 23 24 25 24 23 21 20
86 93 88 63 50 41 25 16 10 10 10 8 6 6 6 6 5 5 6 6 7 7 8 10 11 12 13 14 15 17 18 18 18 18 20 21 24 25 25 26 26 26 26 24
96 78 73 63 40 33 18 12 10 10 9 7 6 6 6 6 5 5 5 6 6 6 7 9 11 11 12 14 14 15 17 18 18 19 21 21 22 24 26 26 26 25 26 25
81 68 57 57 33 24 16 11 10 9 8 6 5 5 5 5 5 5 5 5 6 6 6 7 10 11 12 12 13 14 15 16 17 18 20 20 22 23 24 26 25 24 25 26
64 64 59 46 31 19 12 11 10 9 6 5 5 5 5 5 5 5 5 5 6 6 6 6 8 10 11 12 12 13 13 14 15 16 17 19 21 22 23 25 26 25 27 27
51 56 53 38 23 14 10 11 10 7 6 5 5 5 4 4 5 5 5 5 5 6 6 6 7 9 12 12 13 13 14 14 15 15 15 16 18 21 22 23 25 26 27 28